Tracking 30101 objects as of 14-Dec-2024
HD Live streaming from Space Station
objects crossing your sky now

DIDO 3

Track DIDO 3 now!
10-day predictions
DIDO 3 is classified as:


NORAD ID: 46284
Int'l Code: 2020-061N
Perigee: 403.2 km
Apogee: 405.3 km
Inclination: 97.3 °
Period: 92.5 minutes
Semi major axis: 6775 km
RCS: Unknown
Launch date: September 3, 2020
Source: Israel (ISRA)
Launch site: FRENCH GUIANA (FRGUI)

Uplink (MHz):
Downlink (MHz): 400.450
Beacon (MHz):
Mode: 1200bps BPSK
Call sign: DIDO-3
Status: Active

Your satellite tracking list
Your tracking list is empty




NASA's NSSDC Master Catalog

Two Line Element Set (TLE):
1 46284U 20061N   24348.76418520  .00092278  00000-0  12798-2 0  9994
2 46284  97.3212  55.8164 0001499 273.6506  86.4577 15.56740313237128
Source of the keplerian elements: AFSPC